When you browse on this site, cookies collect data to enhance your experience and personalize the content and advertising you see.
Visit our Privacy Policy to learn more. By continuing to use the site, you agree to this use of cookies and data.

Meteo pe oră la Shumsk

Astăzi, 16 Iulie, Joi

Timp Temperatura Precipitaţii Vânt Presiune Umiditate
00:00 +15°C° 0 mm 1 m/s 736 mmHg 87%
01:00 +15°C° 0 mm 1 m/s 736 mmHg 87%
02:00 +14°C° 0 mm 1 m/s 736 mmHg 86%
03:00 +14°C° 0 mm 1 m/s 735 mmHg 86%
04:00 +14°C° 0 mm 1 m/s 735 mmHg 86%
05:00 +14°C° 0 mm 1 m/s 735 mmHg 86%
06:00 +16°C° 0 mm 1 m/s 735 mmHg 83%
07:00 +18°C° 0 mm 1 m/s 735 mmHg 79%
08:00 +20°C° 0 mm 1 m/s 736 mmHg 76%
09:00 +20°C° 0.2 mm 2 m/s 736 mmHg 72%
10:00 +21°C° 0.2 mm 2 m/s 736 mmHg 69%
11:00 +22°C° 0.2 mm 3 m/s 736 mmHg 66%
12:00 +22°C° 0.6 mm 3 m/s 735 mmHg 65%
13:00 +24°C° 0.6 mm 3 m/s 735 mmHg 65%
14:00 +24°C° 0.6 mm 3 m/s 735 mmHg 64%
15:00 +24°C° 0.7 mm 2 m/s 735 mmHg 65%
16:00 +24°C° 0.7 mm 2 m/s 734 mmHg 66%
17:00 +23°C° 0.7 mm 1 m/s 734 mmHg 67%
18:00 +22°C° 0.4 mm 1 m/s 734 mmHg 72%
19:00 +21°C° 0.4 mm 1 m/s 734 mmHg 77%
20:00 +19°C° 0.4 mm 1 m/s 734 mmHg 82%
21:00 +18°C° 0 mm 1 m/s 734 mmHg 85%
22:00 +18°C° 0 mm 1 m/s 734 mmHg 87%
23:00 +16°C° 0 mm 1 m/s 734 mmHg 89%

Mâine, 17 Iulie, Vineri

Timp Temperatura Precipitaţii Vânt Presiune Umiditate
00:00 +15°C° 0 mm 1 m/s 734 mmHg 90%
01:00 +15°C° 0 mm 1 m/s 734 mmHg 90%
02:00 +15°C° 0 mm 1 m/s 735 mmHg 91%
03:00 +15°C° 0 mm 1 m/s 735 mmHg 91%
04:00 +14°C° 0 mm 1 m/s 734 mmHg 91%
05:00 +14°C° 0 mm 1 m/s 734 mmHg 92%
06:00 +16°C° 0 mm 1 m/s 735 mmHg 88%
07:00 +18°C° 0 mm 1 m/s 735 mmHg 85%
08:00 +20°C° 0 mm 1 m/s 736 mmHg 81%
09:00 +21°C° 0.5 mm 1 m/s 736 mmHg 78%
10:00 +22°C° 0.5 mm 1 m/s 736 mmHg 74%
11:00 +23°C° 0.5 mm 1 m/s 736 mmHg 70%
12:00 +24°C° 0.8 mm 1 m/s 736 mmHg 68%
13:00 +24°C° 0.8 mm 1 m/s 736 mmHg 65%
14:00 +25°C° 0.8 mm 1 m/s 736 mmHg 62%
15:00 +25°C° 0.5 mm 1 m/s 736 mmHg 63%
16:00 +25°C° 0.5 mm 1 m/s 736 mmHg 64%
17:00 +25°C° 0.5 mm 1 m/s 736 mmHg 66%
18:00 +23°C° 0.3 mm 1 m/s 736 mmHg 71%
19:00 +22°C° 0.3 mm 1 m/s 736 mmHg 77%
20:00 +21°C° 0.3 mm 1 m/s 736 mmHg 83%
21:00 +20°C° 0.3 mm 1 m/s 736 mmHg 85%
22:00 +18°C° 0.3 mm 2 m/s 736 mmHg 87%
23:00 +17°C° 0.3 mm 2 m/s 736 mmHg 89%

Poimâine, 18 Iulie, Sâmbătă

Timp Temperatura Precipitaţii Vânt Presiune Umiditate
00:00 +17°C° 0 mm 2 m/s 736 mmHg 90%
01:00 +17°C° 0 mm 2 m/s 736 mmHg 91%
02:00 +16°C° 0 mm 2 m/s 737 mmHg 91%
03:00 +16°C° 0 mm 2 m/s 737 mmHg 92%
04:00 +16°C° 0 mm 2 m/s 737 mmHg 92%
05:00 +16°C° 0 mm 2 m/s 737 mmHg 93%
06:00 +17°C° 0 mm 2 m/s 737 mmHg 90%
07:00 +18°C° 0 mm 2 m/s 737 mmHg 87%
08:00 +20°C° 0 mm 3 m/s 737 mmHg 84%
09:00 +21°C° 0.1 mm 3 m/s 737 mmHg 79%
10:00 +24°C° 0.1 mm 3 m/s 737 mmHg 74%
11:00 +25°C° 0.1 mm 3 m/s 737 mmHg 69%
12:00 +25°C° 0.5 mm 3 m/s 737 mmHg 68%
13:00 +26°C° 0.5 mm 4 m/s 737 mmHg 68%
14:00 +26°C° 0.5 mm 4 m/s 737 mmHg 68%
15:00 +26°C° 0.5 mm 4 m/s 737 mmHg 70%
16:00 +25°C° 0.5 mm 4 m/s 736 mmHg 71%
17:00 +25°C° 0.5 mm 4 m/s 736 mmHg 73%
18:00 +24°C° 0.4 mm 3 m/s 736 mmHg 78%
19:00 +21°C° 0.4 mm 3 m/s 736 mmHg 82%
20:00 +20°C° 0.4 mm 3 m/s 736 mmHg 86%
21:00 +19°C° 0 mm 3 m/s 737 mmHg 87%
22:00 +19°C° 0 mm 2 m/s 737 mmHg 88%
23:00 +18°C° 0 mm 2 m/s 737 mmHg 89%

19 Iulie, Duminică

Timp Temperatura Precipitaţii Vânt Presiune Umiditate
00:00 +18°C° 0 mm 2 m/s 737 mmHg 90%
01:00 +17°C° 0 mm 2 m/s 737 mmHg 90%
02:00 +17°C° 0 mm 2 m/s 737 mmHg 91%
03:00 +17°C° 0.1 mm 2 m/s 737 mmHg 92%
04:00 +17°C° 0.1 mm 2 m/s 737 mmHg 92%
05:00 +16°C° 0.1 mm 2 m/s 737 mmHg 93%
06:00 +17°C° 0.3 mm 2 m/s 737 mmHg 91%
07:00 +18°C° 0.3 mm 2 m/s 737 mmHg 89%
08:00 +19°C° 0.3 mm 2 m/s 737 mmHg 87%
09:00 +21°C° 0.3 mm 2 m/s 737 mmHg 82%
10:00 +23°C° 0.3 mm 2 m/s 737 mmHg 76%
11:00 +25°C° 0.3 mm 2 m/s 737 mmHg 70%
12:00 +25°C° 0.9 mm 2 m/s 737 mmHg 68%
13:00 +26°C° 0.9 mm 2 m/s 737 mmHg 67%
14:00 +26°C° 0.9 mm 2 m/s 736 mmHg 65%
15:00 +26°C° 1 mm 2 m/s 736 mmHg 68%
16:00 +26°C° 1 mm 2 m/s 736 mmHg 70%
17:00 +26°C° 1 mm 2 m/s 736 mmHg 73%
18:00 +24°C° 0.5 mm 2 m/s 736 mmHg 77%
19:00 +23°C° 0.5 mm 2 m/s 736 mmHg 81%
20:00 +21°C° 0.5 mm 2 m/s 736 mmHg 85%
21:00 +20°C° 0 mm 2 m/s 736 mmHg 86%
22:00 +19°C° 0 mm 2 m/s 736 mmHg 88%
23:00 +18°C° 0 mm 2 m/s 736 mmHg 89%

20 Iulie, Luni

Timp Temperatura Precipitaţii Vânt Presiune Umiditate
00:00 +18°C° 0 mm 2 m/s 736 mmHg 90%
01:00 +17°C° 0 mm 2 m/s 735 mmHg 90%
02:00 +17°C° 0 mm 2 m/s 735 mmHg 91%
03:00 +17°C° 0 mm 2 m/s 735 mmHg 91%
04:00 +17°C° 0 mm 2 m/s 735 mmHg 92%
05:00 +17°C° 0 mm 2 m/s 735 mmHg 92%
06:00 +18°C° 0 mm 2 m/s 735 mmHg 89%
07:00 +19°C° 0 mm 2 m/s 735 mmHg 86%
08:00 +21°C° 0 mm 2 m/s 735 mmHg 83%
09:00 +23°C° 0.4 mm 2 m/s 735 mmHg 80%
10:00 +24°C° 0.4 mm 3 m/s 736 mmHg 76%
11:00 +25°C° 0.4 mm 3 m/s 736 mmHg 72%
12:00 +25°C° 0.6 mm 2 m/s 735 mmHg 71%
13:00 +25°C° 0.6 mm 2 m/s 735 mmHg 71%
14:00 +25°C° 0.6 mm 2 m/s 735 mmHg 70%
15:00 +25°C° 0.4 mm 2 m/s 735 mmHg 69%
16:00 +25°C° 0.4 mm 1 m/s 734 mmHg 67%
17:00 +25°C° 0.4 mm 1 m/s 734 mmHg 66%
18:00 +24°C° 0.1 mm 1 m/s 734 mmHg 71%
19:00 +21°C° 0.1 mm 0 m/s 734 mmHg 76%
20:00 +19°C° 0.1 mm 0 m/s 734 mmHg 81%
21:00 +21°C° 0 mm 1 m/s 734 mmHg 82%
22:00 +20°C° 0 mm 1 m/s 734 mmHg 84%
23:00 +19°C° 0 mm 1 m/s 734 mmHg 86%

21 Iulie, Marţi

Timp Temperatura Precipitaţii Vânt Presiune Umiditate
00:00 +19°C° 0 mm 1 m/s 734 mmHg 88%
01:00 +19°C° 0 mm 1 m/s 734 mmHg 89%
02:00 +17°C° 0 mm 2 m/s 734 mmHg 90%
03:00 +17°C° 0 mm 2 m/s 734 mmHg 91%
04:00 +17°C° 0 mm 2 m/s 734 mmHg 91%
05:00 +17°C° 0 mm 2 m/s 734 mmHg 92%
06:00 +18°C° 0 mm 2 m/s 734 mmHg 90%
07:00 +20°C° 0 mm 3 m/s 735 mmHg 87%
08:00 +21°C° 0 mm 3 m/s 735 mmHg 85%
09:00 +22°C° 1.5 mm 4 m/s 735 mmHg 82%
10:00 +23°C° 1.5 mm 5 m/s 735 mmHg 79%
11:00 +24°C° 1.5 mm 6 m/s 735 mmHg 76%
12:00 +24°C° 1.1 mm 6 m/s 735 mmHg 77%
13:00 +24°C° 1.1 mm 7 m/s 735 mmHg 78%
14:00 +24°C° 1.1 mm 7 m/s 735 mmHg 80%
15:00 +23°C° 0.2 mm 7 m/s 736 mmHg 79%
16:00 +23°C° 0.2 mm 7 m/s 736 mmHg 78%
17:00 +22°C° 0.2 mm 7 m/s 736 mmHg 78%
18:00 +21°C° 0 mm 6 m/s 736 mmHg 80%
19:00 +20°C° 0 mm 5 m/s 736 mmHg 82%
20:00 +18°C° 0 mm 4 m/s 737 mmHg 85%
21:00 +17°C° 0 mm 4 m/s 737 mmHg 87%
22:00 +16°C° 0 mm 3 m/s 737 mmHg 89%
23:00 +14°C° 0 mm 3 m/s 738 mmHg 91%
Arată mai mult